Location: Ciserano
(45.5833°N, 9.6000°E)
Time: 10:11:20
(UTC+00:00)

ALOS - Pass Details

Date: 29 November 2020
Orbit: 682 x 686 km, 97.9° (Epoch: 25 January)

Event Time Altitude Azimuth Distance (km) Brightness Sun altitude
Rises 03:47:38 0° 15° (NNE) 3,064 5.8 -29.4°
Reaches altitude 10° 03:49:54 10° 18° (NNE) 2,143 5.0 -29.0°
Enters shadow 03:53:18 46° 37° (NE) 925 3.0 -28.4°
